This demonstration page uses our WeatherBlox Daily Observations layout. Learn more.

38.80484, -77.04692

Hourly Observations for February 14, 2020

Temp ( °F °C ) Dew Point ( °F °C ) Humidity (%) Winds ( mph kmh ) Pressure ( in mb ) Visibility ( mi km ) Precip ( " mm )
12:52 am 00:52 Mostly Cloudy 43 6.1 26 -3.3 51 51 WNW 7 11 30.08 1019 10 16.0934 0 0
1:52 am 01:52 Mostly Cloudy 41 5 25 -3.9 53 53 VRB 5 7 30.08 1019 10 16.0934 0 0
2:52 am 02:52 Mostly Cloudy 41 5 25 -3.9 53 53 W 5 7 30.09 1019 10 16.0934 0 0
3:52 am 03:52 Mostly Cloudy 40 4.4 25 -3.9 55 55 W 5 7 30.11 1020 10 16.0934 0 0
4:52 am 04:52 Mostly Cloudy 41 5 24 -4.4 51 51 WNW 10 17 30.14 1021 10 16.0934 0 0
5:52 am 05:52 Mostly Cloudy 39 3.9 26 -3.3 60 60 NNW 20 31 30.17 1022 10 16.0934 0 0
6:52 am 06:52 Mostly Cloudy 39 3.9 26 -3.3 60 60 NNW 14 22 30.22 1023 10 16.0934 0 0
7:52 am 07:52 Mostly Cloudy 38 3.3 25 -3.9 60 60 NNW 17 28 30.27 1025 10 16.0934 0 0
8:52 am 08:52 Mostly Cloudy 38 3.3 22 -5.6 52 52 N 17 28 30.31 1027 10 16.0934 0 0
9:52 am 09:52 Partly Cloudy 37 2.8 20 -6.7 50 50 NNW 18 30 30.33 1027 10 16.0934 0 0
10:52 am 10:52 Partly Cloudy 39 3.9 21 -6.1 48 48 NNW 13 20 30.35 1028 10 16.0934 0 0
11:52 am 11:52 Partly Cloudy 39 3.9 18 -7.8 43 43 NW 18 30 30.35 1028 10 16.0934 0 0
12:52 pm 12:52 Partly Cloudy 39 3.9 17 -8.3 41 41 NNW 17 28 30.36 1028 10 16.0934 0 0
1:52 pm 13:52 Partly Cloudy 38 3.3 15 -9.4 39 39 NNW 20 31 30.36 1028 10 16.0934 0 0
2:52 pm 14:52 Mostly Sunny 38 3.3 15 -9.4 39 39 NNW 14 22 30.39 1029 10 16.0934 0 0
3:52 pm 15:52 Mostly Sunny 37 2.8 13 -10.6 37 37 NW 18 30 30.41 1030 10 16.0934 0 0
4:52 pm 16:52 Mostly Sunny 35 1.7 12 -11.1 38 38 NNW 21 33 30.43 1031 10 16.0934 0 0
5:52 pm 17:52 Mostly Clear 32 0 10 -12.2 40 40 NNW 17 28 30.47 1032 10 16.0934 0 0
6:52 pm 18:52 Mostly Clear 31 -0.6 9 -12.8 40 40 NNW 16 26 30.51 1033 10 16.0934 0 0
7:52 pm 19:52 Mostly Clear 30 -1.1 10 -12.2 43 43 NNW 16 26 30.53 1034 10 16.0934 0 0
8:52 pm 20:52 Clear 29 -1.7 9 -12.8 43 43 NNW 15 24 30.56 1035 10 16.0934 0 0
9:52 pm 21:52 Clear 28 -2.2 10 -12.2 47 47 N 17 28 30.58 1036 10 16.0934 0 0
10:52 pm 22:52 Clear 27 -2.8 9 -12.8 46 46 NNW 17 28 30.6 1036 10 16.0934 0 0
11:52 pm 23:52 Clear 26 -3.3 9 -12.8 48 48 N 14 22 30.61 1037 10 16.0934 0 0

Powered by AerisWeather